| time (UTC) | temp F | wind direction | speed MPH | gust MPH | rain 1hr in | rain 24hr in | rain mn in | humidity % | barometer mb |
| 20260504081537 | 47 | 190 | 0.0 | 5.0 | 0.00 | 0.01 | 0.00 | 78 | 1005.3 |
| 20260504044541 | 50 | 195 | 3.0 | 10.0 | 0.00 | 0.01 | 0.00 | 70 | 1007.8 |
| 20260504043040 | 50 | 153 | 4.0 | 10.0 | 0.00 | 0.01 | 0.00 | 70 | 1008.1 |
| 20260504041535 | 50 | 201 | 3.0 | 10.0 | 0.00 | 0.01 | 0.00 | 70 | 1008.1 |
| 20260504040057 | 50 | 240 | 3.0 | 11.0 | 0.00 | 0.01 | 0.00 | 71 | 1008.2 |
| 20260504034541 | 50 | 244 | 2.0 | 11.0 | 0.00 | 0.01 | 0.01 | 71 | 1008.3 |
| 20260504033035 | 50 | 276 | 3.0 | 12.0 | 0.00 | 0.01 | 0.01 | 70 | 1008.3 |
| 20260504031539 | 50 | 137 | 2.0 | 10.0 | 0.00 | 0.01 | 0.01 | 70 | 1008.5 |
| 20260504030036 | 50 | 206 | 5.0 | 12.0 | 0.00 | 0.01 | 0.01 | 70 | 1008.9 |
| 20260504024534 | 50 | 196 | 3.0 | 12.0 | 0.00 | 0.01 | 0.01 | 70 | 1009.0 |
| 20260504023040 | 50 | 214 | 2.0 | 6.0 | 0.00 | 0.01 | 0.01 | 70 | 1009.0 |
| 20260504021540 | 51 | 338 | 3.0 | 12.0 | 0.00 | 0.01 | 0.01 | 70 | 1008.9 |
| 20260504020040 | 51 | 218 | 3.0 | 10.0 | 0.00 | 0.01 | 0.01 | 70 | 1009.0 |
| 20260504014546 | 51 | 290 | 3.0 | 8.0 | 0.00 | 0.01 | 0.01 | 69 | 1008.8 |
| 20260504013036 | 51 | 150 | 3.0 | 11.0 | 0.00 | 0.01 | 0.01 | 68 | 1009.0 |
| 20260504011534 | 52 | 181 | 1.0 | 10.0 | 0.00 | 0.01 | 0.01 | 67 | 1009.1 |
| 20260504010034 | 52 | 127 | 1.0 | 8.0 | 0.00 | 0.01 | 0.01 | 67 | 1009.0 |
| 20260504004542 | 53 | 231 | 3.0 | 8.0 | 0.00 | 0.01 | 0.01 | 65 | 1009.1 |
| 20260504003040 | 53 | 264 | 4.0 | 10.0 | 0.00 | 0.01 | 0.01 | 64 | 1009.1 |
| 20260504001555 | 54 | 244 | 6.0 | 15.0 | 0.00 | 0.01 | 0.01 | 63 | 1009.4 |
| 20260504000037 | 54 | 298 | 6.0 | 17.0 | 0.00 | 0.01 | 0.01 | 62 | 1009.4 |
| 20260503234536 | 55 | 258 | 5.0 | 15.0 | 0.00 | 0.01 | 0.01 | 61 | 1009.5 |
| 20260503233043 | 56 | 322 | 5.0 | 18.0 | 0.00 | 0.01 | 0.01 | 59 | 1009.2 |
| 20260503231541 | 57 | 239 | 5.0 | 15.0 | 0.00 | 0.01 | 0.01 | 57 | 1009.4 |
| 20260503230041 | 58 | 290 | 8.0 | 18.0 | 0.00 | 0.01 | 0.01 | 54 | 1009.2 |
| 20260503224540 | 58 | 245 | 11.0 | 19.0 | 0.00 | 0.01 | 0.01 | 51 | 1009.2 |
| 20260503223036 | 59 | 250 | 8.0 | 22.0 | 0.00 | 0.01 | 0.01 | 50 | 1009.2 |
| 20260503221536 | 60 | 114 | 7.0 | 16.0 | 0.00 | 0.01 | 0.01 | 48 | 1009.3 |
| 20260503220036 | 61 | 248 | 7.0 | 21.0 | 0.00 | 0.01 | 0.01 | 47 | 1009.3 |
| 20260503214532 | 61 | 240 | 9.0 | 20.0 | 0.00 | 0.01 | 0.01 | 46 | 1009.3 |
| 20260503213038 | 60 | 212 | 10.0 | 23.0 | 0.00 | 0.01 | 0.01 | 45 | 1009.2 |
| 20260503211541 | 61 | 271 | 12.0 | 21.0 | 0.00 | 0.01 | 0.01 | 44 | 1009.3 |
| 20260503210037 | 61 | 286 | 7.0 | 17.0 | 0.00 | 0.01 | 0.01 | 46 | 1009.2 |
| 20260503204540 | 61 | 76 | 8.0 | 24.0 | 0.00 | 0.01 | 0.01 | 45 | 1009.3 |
| 20260503203036 | 62 | 262 | 6.0 | 17.0 | 0.00 | 0.01 | 0.01 | 46 | 1009.4 |
| 20260503201534 | 61 | 219 | 9.0 | 24.0 | 0.00 | 0.01 | 0.01 | 44 | 1009.6 |
| 20260503200038 | 62 | 131 | 9.0 | 19.0 | 0.00 | 0.01 | 0.01 | 43 | 1009.7 |
| 20260503194542 | 61 | 231 | 9.0 | 19.0 | 0.00 | 0.01 | 0.01 | 42 | 1009.8 |
| 20260503193042 | 61 | 253 | 7.0 | 21.0 | 0.01 | 0.01 | 0.01 | 44 | 1010.1 |
| 20260503191535 | 61 | 262 | 10.0 | 21.0 | 0.01 | 0.01 | 0.01 | 42 | 1010.3 |
| 20260503190036 | 62 | 236 | 7.0 | 29.0 | 0.01 | 0.01 | 0.01 | 42 | 1010.6 |
| 20260503184535 | 62 | 259 | 10.0 | 23.0 | 0.01 | 0.01 | 0.01 | 43 | 1010.5 |
| 20260503183043 | 60 | 249 | 9.0 | 29.0 | 0.00 | 0.00 | 0.00 | 43 | 1010.8 |
| 20260503181532 | 61 | 43 | 11.0 | 24.0 | 0.00 | 0.00 | 0.00 | 41 | 1010.9 |
| 20260503180041 | 61 | 274 | 13.0 | 34.0 | 0.00 | 0.00 | 0.00 | 41 | 1011.1 |
| 20260503174537 | 59 | 233 | 7.0 | 21.0 | 0.00 | 0.00 | 0.00 | 46 | 1011.4 |
| 20260503173035 | 58 | 230 | 6.0 | 21.0 | 0.00 | 0.00 | 0.00 | 46 | 1011.6 |
| 20260503171536 | 58 | 279 | 7.0 | 22.0 | 0.00 | 0.00 | 0.00 | 47 | 1012.0 |